When you browse on this site, cookies collect data to enhance your experience and personalize the content and advertising you see.
Visit our Privacy Policy to learn more. By continuing to use the site, you agree to this use of cookies and data.
  • In Portugal
  • List of Countries
  • For 7 days
  • Water Temperature
  • Weather Map
  • Weather Widgets
  • user-avatar
    Login

    Hourly Weather Kazanovskaya

    Today, 4 June, Thursday

    Time Temperature Precipitation Wind Pressure Humidity
    00:00 +9°C° 0 mm 1 mps 715 mmHg 85%
    01:00 +8°C° 0 mm 1 mps 715 mmHg 86%
    02:00 +8°C° 0 mm 1 mps 715 mmHg 86%
    03:00 +8°C° 0 mm 1 mps 714 mmHg 87%
    04:00 +9°C° 0 mm 1 mps 714 mmHg 84%
    05:00 +9°C° 0 mm 0 mps 714 mmHg 80%
    06:00 +10°C° 0 mm 0 mps 714 mmHg 76%
    07:00 +12°C° 0.1 mm 1 mps 714 mmHg 70%
    08:00 +14°C° 0.1 mm 1 mps 714 mmHg 63%
    09:00 +15°C° 0.1 mm 2 mps 713 mmHg 57%
    10:00 +16°C° 0.2 mm 2 mps 713 mmHg 55%
    11:00 +16°C° 0.2 mm 3 mps 714 mmHg 54%
    12:00 +15°C° 0 mm 4 mps 714 mmHg 52%
    13:00 +15°C° 0.2 mm 4 mps 713 mmHg 55%
    14:00 +16°C° 0.2 mm 3 mps 713 mmHg 58%
    15:00 +16°C° 0.2 mm 2 mps 713 mmHg 60%
    16:00 +16°C° 0.2 mm 2 mps 713 mmHg 60%
    17:00 +16°C° 0.2 mm 2 mps 713 mmHg 59%
    18:00 +16°C° 0 mm 3 mps 713 mmHg 54%
    19:00 +14°C° 0.1 mm 2 mps 713 mmHg 62%
    20:00 +12°C° 0.1 mm 1 mps 713 mmHg 71%
    21:00 +10°C° 0.1 mm 1 mps 712 mmHg 80%
    22:00 +9°C° 0 mm 1 mps 712 mmHg 82%
    23:00 +9°C° 0 mm 1 mps 712 mmHg 83%

    Tomorrow, 5 June, Friday

    Time Temperature Precipitation Wind Pressure Humidity
    00:00 +9°C° 0 mm 1 mps 712 mmHg 85%
    01:00 +9°C° 0.1 mm 1 mps 712 mmHg 87%
    02:00 +9°C° 0.1 mm 1 mps 711 mmHg 88%
    03:00 +9°C° 0.1 mm 1 mps 711 mmHg 90%
    04:00 +9°C° 1.1 mm 1 mps 711 mmHg 91%
    05:00 +9°C° 1.1 mm 1 mps 711 mmHg 93%
    06:00 +9°C° 1.1 mm 1 mps 710 mmHg 94%
    07:00 +9°C° 0.5 mm 1 mps 710 mmHg 93%
    08:00 +10°C° 0.5 mm 1 mps 710 mmHg 92%
    09:00 +10°C° 0.5 mm 1 mps 709 mmHg 91%
    10:00 +11°C° 0.2 mm 1 mps 709 mmHg 89%
    11:00 +10°C° 0.2 mm 2 mps 709 mmHg 87%
    12:00 +12°C° 0.2 mm 2 mps 709 mmHg 85%
    13:00 +12°C° 0.4 mm 2 mps 709 mmHg 82%
    14:00 +12°C° 0.4 mm 1 mps 709 mmHg 80%
    15:00 +13°C° 0.4 mm 1 mps 709 mmHg 77%
    16:00 +13°C° 0.4 mm 1 mps 710 mmHg 79%
    17:00 +12°C° 0.4 mm 2 mps 710 mmHg 81%
    18:00 +12°C° 0.4 mm 2 mps 711 mmHg 83%
    19:00 +10°C° 0.2 mm 2 mps 711 mmHg 85%
    20:00 +9°C° 0.2 mm 3 mps 711 mmHg 87%
    21:00 +8°C° 0.2 mm 3 mps 712 mmHg 89%
    22:00 +7°C° 0 mm 4 mps 712 mmHg 89%
    23:00 +7°C° 0 mm 4 mps 712 mmHg 89%

    Day after tomorrow, 6 June, Saturday

    Time Temperature Precipitation Wind Pressure Humidity
    00:00 +6°C° 0 mm 4 mps 713 mmHg 89%
    01:00 +6°C° 0.2 mm 4 mps 713 mmHg 89%
    02:00 +6°C° 0.2 mm 5 mps 713 mmHg 90%
    03:00 +5°C° 0.2 mm 5 mps 713 mmHg 90%
    04:00 +6°C° 0.4 mm 5 mps 714 mmHg 88%
    05:00 +6°C° 0.4 mm 5 mps 715 mmHg 86%
    06:00 +6°C° 0.4 mm 5 mps 715 mmHg 84%
    07:00 +7°C° 0 mm 5 mps 716 mmHg 81%
    08:00 +8°C° 0 mm 5 mps 716 mmHg 78%
    09:00 +8°C° 0 mm 5 mps 716 mmHg 75%
    10:00 +9°C° 0 mm 5 mps 716 mmHg 73%
    11:00 +10°C° 0 mm 6 mps 717 mmHg 70%
    12:00 +10°C° 0 mm 6 mps 717 mmHg 67%
    13:00 +11°C° 0 mm 6 mps 717 mmHg 66%
    14:00 +11°C° 0 mm 6 mps 717 mmHg 64%
    15:00 +12°C° 0 mm 5 mps 717 mmHg 62%
    16:00 +12°C° 0 mm 5 mps 717 mmHg 63%
    17:00 +11°C° 0 mm 4 mps 717 mmHg 65%
    18:00 +11°C° 0 mm 4 mps 717 mmHg 66%
    19:00 +10°C° 0 mm 3 mps 718 mmHg 73%
    20:00 +8°C° 0 mm 2 mps 718 mmHg 79%
    21:00 +8°C° 0 mm 1 mps 718 mmHg 86%
    22:00 +7°C° 0 mm 1 mps 718 mmHg 87%
    23:00 +7°C° 0 mm 1 mps 718 mmHg 87%

    7 June, Sunday

    Time Temperature Precipitation Wind Pressure Humidity
    00:00 +7°C° 0 mm 1 mps 719 mmHg 88%
    01:00 +6°C° 0 mm 1 mps 719 mmHg 88%
    02:00 +6°C° 0 mm 1 mps 719 mmHg 88%
    03:00 +6°C° 0 mm 1 mps 719 mmHg 88%
    04:00 +7°C° 0 mm 1 mps 719 mmHg 84%
    05:00 +8°C° 0 mm 1 mps 719 mmHg 80%
    06:00 +9°C° 0 mm 1 mps 720 mmHg 77%
    07:00 +9°C° 0 mm 2 mps 720 mmHg 71%
    08:00 +12°C° 0 mm 2 mps 720 mmHg 66%
    09:00 +13°C° 0 mm 3 mps 720 mmHg 61%
    10:00 +13°C° 0 mm 3 mps 720 mmHg 60%
    11:00 +14°C° 0 mm 4 mps 720 mmHg 59%
    12:00 +14°C° 0 mm 5 mps 720 mmHg 58%
    13:00 +15°C° 0.2 mm 5 mps 719 mmHg 56%
    14:00 +15°C° 0.2 mm 4 mps 719 mmHg 55%
    15:00 +17°C° 0.2 mm 4 mps 719 mmHg 53%
    16:00 +15°C° 0.6 mm 4 mps 719 mmHg 60%
    17:00 +14°C° 0.6 mm 4 mps 719 mmHg 67%
    18:00 +13°C° 0.6 mm 4 mps 719 mmHg 74%
    19:00 +12°C° 0.3 mm 3 mps 719 mmHg 78%
    20:00 +10°C° 0.3 mm 2 mps 719 mmHg 83%
    21:00 +9°C° 0.3 mm 2 mps 719 mmHg 87%
    22:00 +9°C° 0.2 mm 2 mps 719 mmHg 88%
    23:00 +9°C° 0.2 mm 2 mps 719 mmHg 89%

    8 June, Monday

    Time Temperature Precipitation Wind Pressure Humidity
    00:00 +9°C° 0.2 mm 1 mps 719 mmHg 89%
    01:00 +8°C° 0.2 mm 2 mps 719 mmHg 91%
    02:00 +7°C° 0.2 mm 2 mps 719 mmHg 92%
    03:00 +6°C° 0.2 mm 2 mps 719 mmHg 93%
    04:00 +7°C° 0.2 mm 2 mps 720 mmHg 92%
    05:00 +8°C° 0.2 mm 2 mps 720 mmHg 91%
    06:00 +8°C° 0.2 mm 2 mps 721 mmHg 90%
    07:00 +10°C° 0.2 mm 3 mps 721 mmHg 78%
    08:00 +12°C° 0.2 mm 3 mps 721 mmHg 67%
    09:00 +14°C° 0.2 mm 4 mps 721 mmHg 56%
    10:00 +15°C° 0 mm 4 mps 721 mmHg 51%
    11:00 +17°C° 0 mm 3 mps 720 mmHg 47%
    12:00 +17°C° 0 mm 3 mps 720 mmHg 42%
    13:00 +18°C° 0 mm 3 mps 720 mmHg 43%
    14:00 +18°C° 0 mm 4 mps 720 mmHg 43%
    15:00 +19°C° 0 mm 4 mps 720 mmHg 43%
    16:00 +18°C° 0 mm 4 mps 719 mmHg 48%
    17:00 +17°C° 0 mm 4 mps 719 mmHg 53%
    18:00 +17°C° 0 mm 3 mps 719 mmHg 57%
    19:00 +16°C° 0 mm 3 mps 719 mmHg 59%
    20:00 +14°C° 0 mm 3 mps 719 mmHg 61%
    21:00 +12°C° 0 mm 4 mps 719 mmHg 63%
    22:00 +12°C° 0.7 mm 4 mps 718 mmHg 72%
    23:00 +11°C° 0.7 mm 4 mps 718 mmHg 81%

    9 June, Tuesday

    Time Temperature Precipitation Wind Pressure Humidity
    00:00 +10°C° 0.7 mm 4 mps 717 mmHg 90%
    01:00 +11°C° 0.9 mm 4 mps 717 mmHg 91%
    02:00 +10°C° 0.9 mm 5 mps 716 mmHg 92%
    03:00 +10°C° 0.9 mm 5 mps 716 mmHg 93%
    04:00 +10°C° 0.3 mm 6 mps 716 mmHg 92%
    05:00 +11°C° 0.3 mm 6 mps 715 mmHg 90%
    06:00 +11°C° 0.3 mm 6 mps 715 mmHg 89%
    07:00 +11°C° 0.9 mm 7 mps 715 mmHg 89%
    08:00 +12°C° 0.9 mm 7 mps 714 mmHg 89%
    09:00 +12°C° 0.9 mm 8 mps 714 mmHg 89%
    10:00 +12°C° 0.9 mm 7 mps 714 mmHg 89%
    11:00 +13°C° 0.9 mm 6 mps 714 mmHg 90%
    12:00 +13°C° 0.9 mm 5 mps 714 mmHg 91%
    13:00 +13°C° 0.3 mm 4 mps 715 mmHg 90%
    14:00 +13°C° 0.3 mm 4 mps 715 mmHg 90%
    15:00 +14°C° 0.3 mm 3 mps 716 mmHg 89%
    16:00 +14°C° 0.4 mm 3 mps 716 mmHg 86%
    17:00 +16°C° 0.4 mm 3 mps 717 mmHg 82%
    18:00 +17°C° 0.4 mm 2 mps 717 mmHg 78%
    19:00 +15°C° 0.3 mm 2 mps 717 mmHg 82%
    20:00 +14°C° 0.3 mm 1 mps 718 mmHg 86%
    21:00 +11°C° 0.3 mm 0 mps 718 mmHg 91%
    22:00 +11°C° 0 mm 0 mps 718 mmHg 90%
    23:00 +12°C° 0 mm 0 mps 718 mmHg 90%
    Show more